Tracking 19854 objects as of 22-Sep-2019
HD Live streaming from Space Station
objects crossing your sky now

COSMOS 249 DEB *

Track COSMOS 249 DEB * now!
10-day predictions


NORAD ID: 6176
Int'l Code: 1968-091CG
Perigee: 884.5 km
Apogee: 1,600.3 km
Inclination: 65.7 °
Period: 110.2 minutes
Semi major axis: 7613 km
RCS: 0.0254 m2 (small)
Launch date: October 20, 1968
Source: Commonwealth of Independent States (former USSR) (CIS)
Launch site: TYURATAM MISSILE AND SPACE COMPLEX (TTMTR)

Note: This is SATELLITE DEBRIS
aabbcc
Your satellite tracking list
Your tracking list is empty




NASA's NSSDC Master Catalog

Two Line Element Set (TLE):
1  6176U 68091CG  19263.61786695 +.00000145 +00000-0 +37467-3 0  9993
2  6176 065.7248 281.9948 0470064 353.8599 005.6786 13.06879051837367
Source of the keplerian elements: AFSPC